Location: The D'Auria's Ocala Star Observatory
(29.0276°N, 82.1742°W)
Time: 16:35:35
(UTC-04:00)

Okean 3 Rocket - Visible Passes

Search period start: 23 May 2018 00:00
Search period end: 02 June 2018 00:00
Orbit: 614 x 646 km, 82.5° (Epoch: 22 May)

Date Brightness Start Highest point End Pass type
(mag) Time Alt. Az. Time Alt. Az. Time Alt. Az.
23 May 6.5 02:42:12 12° ENE 02:42:12 12° ENE 02:42:55 10° NE visible
23 May 5.2 04:19:35 23° NW 04:19:35 23° NW 04:21:53 10° NNW visible
24 May 5.9 03:03:05 21° NE 03:03:05 21° NE 03:04:54 10° NNE visible
24 May 5.9 04:40:28 12° NW 04:40:28 12° NW 04:41:14 10° NW visible
25 May 5.5 03:23:57 28° N 03:23:57 28° N 03:26:02 10° N visible
26 May 5.5 03:44:47 23° NNW 03:44:47 23° NNW 03:46:39 10° N visible
27 May 6.5 02:28:14 14° NE 02:28:14 14° NE 02:29:00 10° NE visible
27 May 5.9 04:05:37 14° NW 04:05:37 14° NW 04:06:35 10° NNW visible
28 May 6.1 02:49:02 20° NNE 02:49:02 20° NNE 02:50:26 10° NNE visible
29 May 5.9 03:09:50 20° N 03:09:50 20° N 03:11:18 10° N visible
30 May 6.0 03:30:37 15° NNW 03:30:37 15° NNW 03:31:34 10° NNW visible
31 May 6.5 02:14:00 14° NNE 02:14:00 14° NNE 02:14:44 10° NNE visible
01 Jun 6.2 02:34:46 17° N 02:34:46 17° N 02:35:50 10° N visible
